Lid_Strength_Index
3 3 3 3 3 3 3 3 2 2 2 2 1 1 3 3 3 5 8 6 7 9 9 7 8 10 10 9 12 11 13 11 13 14 13 14 15 13 13 12 13 15 16 16 15 17 18 7 9 13 12 10 10 10
3 3 3 3 3 3 3 3 2 2 2 2 1 1 2 3 3 4 7 5 5 8 8 7 7 7 8 8 9 10 12 12 11 12 12 13 15 14 13 16 10 15 12 15 13 14 10 9 10 9 9 9 9 9
3 3 3 3 3 3 3 3 2 2 2 2 1 1 1 2 3 3 6 5 6 8 8 8 10 8 7 8 7 11 11 10 9 8 11 12 14 12 15 14 12 10 9 12 11 11 10 9 9 8 8 8 8 8
5 4 4 3 3 3 3 3 2 2 1 2 1 1 1 2 3 3 6 5 6 8 12 11 7 9 7 8 8 8 8 8 9 9 11 13 14 10 13 12 13 11 10 12 12 11 10 9 9 8 7 8 9 9
6 5 5 4 4 4 4 3 2 2 2 2 2 1 1 2 3 4 4 5 5 8 11 10 9 9 9 9 8 8 9 10 11 11 12 14 11 10 10 11 12 8 11 16 15 11 11 10 8 8 9 9 9 9
5 5 5 5 5 4 3 2 2 2 1 1 1 1 1 3 3 6 8 5 5 5 10 13 11 11 10 9 9 8 9 10 10 10 11 10 10 11 13 12 9 8 8 8 9 10 9 9 8 7 8 9 9 8
5 5 5 5 4 4 3 3 2 2 2 2 1 1 2 3 5 7 8 6 4 5 10 13 14 11 9 9 9 10 9 9 9 9 10 11 12 9 10 12 11 9 8 8 8 8 10 9 9 8 9 9 8 7
5 5 5 5 4 4 4 3 2 2 2 2 2 2 3 4 5 6 5 4 4 7 9 14 14 13 7 10 11 9 10 9 8 9 9 11 11 8 12 10 9 8 8 8 9 8 9 8 7 9 9 9 9 9
4 4 4 4 4 4 3 3 2 2 1 1 2 4 5 6 8 7 4 3 4 7 11 13 16 16 8 8 9 9 9 10 8 10 10 9 10 13 11 9 8 8 11 10 9 9 9 8 9 10 10 10 10 10
4 4 4 3 3 3 3 2 2 1 2 3 5 7 10 7 4 3 7 9 9 9 11 14 12 14 11 11 10 10 8 10 12 10 8 11 12 10 7 7 7 8 9 9 11 10 9 9 10 10 11 10 9 10
3 3 2 3 2 2 2 2 2 2 4 6 8 8 6 3 6 8 11 11 11 14 13 13 12 14 10 13 12 10 12 11 13 11 11 12 12 9 9 9 9 9 10 10 9 8 8 9 10 11 11 10 10 10
2 2 2 2 2 2 2 2 2 4 6 6 6 5 6 7 9 11 12 11 13 15 12 13 13 12 12 10 11 11 12 11 14 9 12 14 10 9 9 10 10 10 10 9 8 8 8 9 10 11 11 11 10 10
2 1 1 1 1 1 2 2 3 3 4 5 7 9 9 10 13 14 15 13 13 12 10 10 12 11 12 11 11 11 12 13 8 12 13 11 9 9 9 10 10 10 9 9 9 8 8 9 9 11 12 11 10 11
2 2 2 2 2 1 2 1 2 3 6 9 10 13 12 13 13 13 13 11 9 8 8 8 10 11 11 11 11 12 10 10 13 15 14 11 10 10 10 10 11 11 8 10 9 8 8 9 10 10 11 11 11 12
2 2 2 2 2 2 1 1 2 4 6 10 9 13 12 10 10 9 9 9 7 7 7 8 9 11 11 12 12 13 14 16 16 16 15 12 11 10 10 10 10 10 8 9 9 9 9 10 10 10 11 11 12 13
2 2 3 2 2 2 2 2 4 5 7 8 9 10 10 10 10 10 9 9 6 7 7 8 10 12 11 13 14 15 16 20 17 16 12 12 12 11 11 10 9 8 8 10 10 10 10 10 11 10 11 12 13 13
2 4 2 2 2 2 2 6 6 8 9 10 11 8 10 9 9 8 8 8 6 9 11 11 13 13 11 14 15 16 17 16 13 12 12 12 12 12 11 10 9 9 10 11 11 10 11 10 10 11 11 11 13 14
4 3 2 2 2 4 6 6 8 9 10 10 11 10 9 9 9 8 7 7 8 9 10 11 10 12 12 14 16 13 12 11 11 11 12 12 12 11 11 11 10 10 11 11 11 11 12 11 12 11 12 11 14 15
3 2 2 3 4 6 8 8 7 10 10 9 9 9 9 8 7 7 7 7 7 8 9 11 12 14 14 11 11 11 12 11 11 11 11 11 11 11 11 11 11 12 12 11 12 12 12 12 12 11 12 11 14 15
2 2 3 3 3 7 10 9 7 9 10 9 9 10 10 9 8 7 8 8 9 10 12 12 13 12 11 11 10 11 11 10 11 12 12 12 11 11 12 12 13 13 13 12 12 11 11 11 11 11 11 11 13 14
4 4 3 4 5 6 7 9 10 9 9 10 9 9 9 8 9 9 9 8 10 12 13 11 11 12 12 12 11 11 11 10 11 12 13 14 12 12 12 12 13 13 14 14 13 12 11 12 11 10 11 11 11 13
5 4 5 5 7 7 8 7 8 8 9 8 8 8 9 10 10 9 9 10 11 11 11 11 12 12 12 11 11 13 12 12 13 13 12 12 14 14 14 13 13 14 14 14 14 14 13 12 12 11 10 10 11 12
5 5 7 7 9 10 10 7 10 9 10 10 9 10 10 10 9 8 11 11 11 10 10 11 11 11 12 12 12 12 12 13 14 13 13 13 14 14 14 14 13 14 15 14 14 14 14 13 11 11 10 10 11 12
4 7 9 10 10 12 9 10 9 9 10 10 10 11 10 10 9 11 12 13 12 11 11 12 12 13 13 13 14 14 14 14 14 14 13 13 14 15 14 14 14 13 14 14 14 14 14 13 12 11 11 11 11 13
10 10 10 12 10 11 12 11 11 10 11 11 10 10 10 9 12 12 13 13 12 12 13 13 13 13 14 14 14 14 13 13 14 14 14 13 14 15 15 15 14 14 13 14 14 14 14 13 12 12 10 10 11 14
14 11 12 11 11 11 11 12 12 12 11 11 10 9 9 11 12 13 11 12 12 12 12 11 13 14 14 14 14 14 14 14 13 14 15 14 14 14 16 16 15 15 14 13 14 14 13 13 12 13 12 10 12 13
13 12 11 8 9 9 10 9 9 11 11 11 10 10 11 14 13 11 9 10 11 10 10 10 11 12 13 14 13 13 13 13 13 13 13 13 13 14 14 15 15 14 13 12 12 13 13 13 13 13 13 12 10 13
11 9 12 11 10 9 10 10 10 11 10 8 9 11 13 12 12 10 10 9 10 10 11 11 11 11 12 12 13 12 13 12 12 12 12 13 13 13 13 13 13 13 12 12 12 12 13 13 13 13 13 12 11 12
10 9 8 11 10 10 10 10 10 9 7 8 10 11 10 10 11 11 10 10 10 10 11 11 11 10 10 11 11 12 12 12 13 15 15 16 15 14 14 14 13 12 13 13 14 13 13 14 14 14 13 12 12 11
11 8 10 10 11 12 10 8 8 7 8 8 8 10 11 11 10 10 10 10 11 11 10 10 10 10 11 11 13 13 13 12 13 14 15 17 16 16 15 14 13 13 13 14 14 14 15 14 14 14 14 14 13 12
9 10 9 10 11 9 7 7 8 8 9 10 9 11 11 11 10 10 11 10 11 10 11 11 11 11 12 13 14 14 15 14 13 13 13 14 15 16 15 14 13 13 14 14 14 15 15 15 15 15 15 14 14 13
10 10 10 12 11 8 7 9 9 10 11 11 11 11 11 12 13 13 12 11 11 13 13 12 12 12 11 13 14 14 14 15 15 14 14 15 15 14 14 13 13 13 13 14 14 14 14 15 15 15 15 14 14 13
10 10 10 10 11 10 9 10 10 11 11 12 12 11 12 13 15 14 11 10 11 11 13 14 15 14 14 14 14 14 14 14 15 14 15 15 14 14 14 14 13 13 13 14 15 15 15 15 16 15 15 15 14 12